Marshfield, WI

4:38 PM CDT on May 22, 2017 (GMT -0500)
Marshfield Municipal

Weather History for KMFI - January, 2012

Change the Weather History Date:

Wednesday, January 25, 2012

  Actual Average Record
Temperature  
Mean Temperature 23 °F -  
Max Temperature 30 °F 25 °F 55 °F (1981)
Min Temperature 16 °F 5 °F -25 °F (1936)
Degree Days  
Heating Degree Days 42    
Moisture  
Dew Point 18 °F    
Average Humidity 79    
Maximum Humidity 86    
Minimum Humidity 69    
Precipitation  
Precipitation 0.00 in - - ()
Sea Level Pressure  
Sea Level Pressure 30.22 in    
Wind  
Wind Speed 4 mph (SSE)    
Max Wind Speed 13 mph    
Max Gust Speed -    
Visibility 6 miles    
Events Snow    
Averages and records for this station are not official NWS values.
T = Trace of Precipitation, MM = Missing Value Source: NWS Daily Summary

Daily Weather History Graph

Daily Weather History Graph

Search for Another Location

Airport or City:

Trip Planner

Search our weather history database for the weather conditions in past years. The results will help you decide how hot, cold, wet, or windy it might be!

Date:

Astronomy

Jan. 25, 2012 Rise Set
Actual Time 7:27 AM CST 4:59 PM CST
Civil Twilight 6:55 AM CST 5:30 PM CST
Nautical Twilight 6:20 AM CST 6:06 PM CST
Astronomical Twilight 5:45 AM CST 6:40 PM CST
Moon 8:18 AM CST (1/25) 8:01 PM CST (1/25)
Length of Visible Light 10h 35m
Length of Day
9h 31m
Waxing Crescent, 7% of the Moon is Illuminated
Jan 25
Waxing Crescent
Jan 30
First Quarter
Feb 7
Full
Feb 14
Last Quarter
Feb 21
New

Hourly Weather History & Observations

Time (CST) Temp. Windchill Dew Point Humidity Pressure Visibility Wind Dir Wind Speed Gust Speed Precip Events Conditions
12:54 AM 16.0 °F - 12.0 °F 84% 30.32 in 6.0 mi Calm Calm - N/A   Overcast
1:54 AM 18.0 °F - 12.9 °F 81% 30.35 in 5.0 mi Calm Calm - N/A   Haze
2:54 AM 19.0 °F 11.1 °F 14.0 °F 81% 30.39 in 6.0 mi SSW 5.8 mph - N/A   Haze
3:18 AM 19.4 °F 11.5 °F 14.0 °F 80% 30.30 in 2.0 mi SSW 5.8 mph - 0.00 in Snow Light Snow
3:54 AM 19.0 °F - 15.1 °F 85% 30.36 in 2.0 mi Calm Calm - 0.00 in Snow Light Snow
4:04 AM 19.4 °F - 15.8 °F 86% 30.28 in 2.5 mi Calm Calm - 0.00 in Snow Light Snow
4:37 AM 19.4 °F - 15.8 °F 86% 30.26 in 3.0 mi Calm Calm - 0.00 in Snow Light Snow
4:54 AM 19.0 °F - 15.1 °F 85% 30.32 in 5.0 mi Calm Calm - 0.00 in   Overcast
5:54 AM 19.9 °F 14.9 °F 16.0 °F 85% 30.32 in 4.0 mi SW 3.5 mph - 0.00 in Snow Light Snow
6:47 AM 19.4 °F 12.8 °F 15.8 °F 86% 30.25 in 5.0 mi South 4.6 mph - 0.00 in   Overcast
6:54 AM 19.9 °F 13.4 °F 16.0 °F 85% 30.32 in 5.0 mi South 4.6 mph - 0.00 in   Overcast
7:54 AM 21.0 °F 14.6 °F 17.1 °F 85% 30.30 in 4.0 mi SSE 4.6 mph - N/A   Overcast
8:54 AM 21.0 °F 14.6 °F 17.1 °F 85% 30.27 in 5.0 mi East 4.6 mph - N/A   Overcast
9:54 AM 21.9 °F 13.4 °F 17.1 °F 82% 30.25 in 6.0 mi SSE 6.9 mph - N/A   Haze
10:54 AM 24.1 °F 14.4 °F 18.0 °F 77% 30.25 in 6.0 mi South 9.2 mph - N/A   Haze
11:54 AM 27.0 °F 18.7 °F 19.9 °F 75% 30.22 in 7.0 mi SSE 8.1 mph - N/A   Overcast
12:54 PM 28.9 °F 21.1 °F 21.0 °F 72% 30.18 in 9.0 mi SSE 8.1 mph - N/A   Overcast
1:54 PM 30.0 °F 21.1 °F 21.0 °F 69% 30.16 in 10.0 mi SSE 10.4 mph - N/A   Overcast
2:54 PM 30.0 °F 21.1 °F 21.9 °F 72% 30.15 in 10.0 mi South 10.4 mph - N/A   Overcast
3:54 PM 30.0 °F 20.0 °F 21.9 °F 72% 30.13 in 9.0 mi South 12.7 mph - N/A   Overcast
4:54 PM 30.0 °F 23.2 °F 21.9 °F 72% 30.11 in 9.0 mi SSE 6.9 mph - N/A   Overcast
5:54 PM 28.9 °F 20.4 °F 21.9 °F 75% 30.08 in 10.0 mi SSE 9.2 mph - N/A   Overcast
6:54 PM 28.9 °F 19.8 °F 21.9 °F 75% 30.06 in 10.0 mi SSE 10.4 mph - N/A   Overcast
7:54 PM 28.0 °F 18.6 °F 21.0 °F 75% 30.04 in 10.0 mi SSE 10.4 mph - N/A   Overcast
10:54 PM 27.0 °F 17.3 °F 21.0 °F 78% 30.00 in 10.0 mi SSE 10.4 mph - N/A   Overcast
11:54 PM 27.0 °F 18.0 °F 21.0 °F 78% 29.99 in 9.0 mi South 9.2 mph - N/A   Overcast